Weather Roundup
Issued by NWS

Home | Current Version | Previous Version | Text Only | Print | Product List | Glossary On
Versions: 1 2 3 4 5 6 7 8 9 10 11 12 13 14 15 16 17 18 19 20 21 22 23 24 25 26 27 28 29 30 31 32 33 34 35 36 37 38 39 40 41 42 43 44 45 46 47 48 49 50
000
NZUS93 KARX 221010
HRRWXR

CURRENT HOURLY OBSERVATIONS ACROSS
MUCH OF THE UPPER MISSISSIPPI VALLEY
NATIONAL WEATHER SERVICE LA CROSSE WI
500 AM CDT FRI MAY 22 2015


...SOUTHEAST MINNESOTA...


CITY           SKY/WX    TMP DP  RH WIND       PRES   REMARKS
ROCHESTER      CLEAR     47  33  58 NW8       30.15R
ROCHESTER/MAYO FAIR      50  35  55 CALM      30.14R
WINONA         CLEAR     43  37  81 CALM      30.14R
AUSTIN         CLEAR     43  37  81 CALM      30.15R
ALBERT LEA     CLEAR     43  37  81 CALM      30.15R
DODGE CENTER   PTCLDY    52  34  50 NW6       30.14S
PRESTON        CLEAR     48  33  55 NW6       30.14R
OWATONNA       CLEAR     41  37  87 CALM      30.15R
FARIBAULT      CLEAR     41  39  93 CALM      30.15R
$$

...ELSEWHERE IN MINNESOTA...


CITY           SKY/WX    TMP DP  RH WIND       PRES   REMARKS
MINNEAPOLIS    CLEAR     49  37  63 CALM      30.16R
INTNL FALLS    CLEAR     30  29  96 CALM      30.15R
DULUTH         CLEAR     37  31  78 CALM      30.16R
RED WING       CLEAR     43  39  87 NW5       30.14R
REDWOOD FALLS  CLEAR     46  37  71 W5        30.16R
MANKATO        CLEAR     46  36  66 CALM      30.16R
WORTHINGTON    CLEAR     45  30  57 NW3       30.19S
FAIRMONT       CLEAR     48  30  49 NW5       30.17R
$$

...SOUTHWEST WISCONSIN...


CITY           SKY/WX    TMP DP  RH WIND       PRES   REMARKS
LA CROSSE      CLEAR     45  40  82 SE3       30.13R
PRAIRIE DU CHI CLEAR     42  38  88 E3        30.13R
BOSCOBEL       CLEAR     38  36  92 CALM      30.14R FOG
LONE ROCK      CLEAR     42  39  89 CALM      30.14R
PLATTEVILLE    CLEAR     47  38  70 NE6       30.12R
FORT MC COY    CLEAR     32  32 100 CALM      30.14R
CAMP DOUGLAS   CLEAR     32  32 100 E1        30.14R FOG
VIROQUA        FAIR      49  33  53 E3        30.13R
WIS DELLS      CLEAR     39  35  86 CALM      30.14R
$$

...ELSEWHERE IN WISCONSIN...


CITY           SKY/WX    TMP DP  RH WIND       PRES   REMARKS
MILWAUKEE      CLEAR     43  32  65 N7        30.13R
MADISON        CLEAR     41  35  79 CALM      30.13R
GREEN BAY      CLEAR     38  34  85 CALM      30.16R
EAU CLAIRE     CLEAR     39  37  92 NE5       30.14R
BLACK RVR FLS  FAIR      32  32 100 CALM      30.13R
MEDFORD        CLEAR     33  31  93 NE3       30.15R
WAUSAU         CLEAR     37  35  92 E5        30.15R WCI  33
WIS RAPIDS     CLEAR     39  34  82 CALM      30.17R
MARSHFIELD     CLEAR     41  34  76 E5        30.15R
RICE LAKE      CLEAR     39  36  91 CALM      30.17R
$$

...NORTHEAST IOWA...


CITY           SKY/WX    TMP DP  RH WIND       PRES   REMARKS
DECORAH        CLEAR     46  37  71 CALM      30.13R
MASON CITY     CLEAR     43  35  73 W7        30.17R
CHARLES CITY   CLEAR     43  39  87 NW5       30.15R
OELWEIN        CLEAR     45  39  81 W6        30.15R
$$

...ELSEWHERE IN IOWA...


CITY           SKY/WX    TMP DP  RH WIND       PRES   REMARKS
DES MOINES     CLEAR     52  41  66 NW6       30.17S
IOWA CITY      CLEAR     46  38  73 SW6       30.16R
FORT DODGE     CLEAR     39  36  87 CALM      30.17S
$$

...NORTHERN ILLINOIS...


CITY           SKY/WX    TMP DP  RH WIND       PRES   REMARKS
CHICAGO-OHARE  CLEAR     47  39  74 N9        30.10R
CHICAGO-MIDWAY CLEAR     53  44  71 N5        30.09R
MOLINE         FAIR      46  39  76 W6        30.13R
ROCKFORD       CLEAR     49  37  63 E3        30.13R
PEORIA         CLEAR     54  45  71 W5        30.13R
$$

NOTE: "FAIR" INDICATES FEW OR NO CLOUDS BELOW 12,000 FEET WITH NO
SIGNIFICANT WEATHER AND/OR OBSTRUCTIONS TO VISIBILITY. WIND
SPEEDS ARE IN MILES-PER-HOUR.



USA.gov is the U.S. government's official web portal to all federal, state and local government web resources and services.